398  
ASUS44 KLZK 230305  
RWRLZK  
 
WEATHER ROUNDUP FOR ARKANSAS  
NATIONAL WEATHER SERVICE LITTLE ROCK AR  
900 PM CST WED NOV 22 2017  
 
NOTE: "FAIR" INDICATES FEW OR NO CLOUDS BELOW 12,000 FEET WITH NO  
SIGNIFICANT WEATHER AND/OR S TO VISIBILITY
.  
 
ARZ001-003-010-029-230400-  
NORTHWEST ARKANSAS  
 
CITY SKY/WX TMP DP RH WIND PRES REMARKS
 
FAYETTEVILLE CLOUDY 29 24 82 CALM 30.25R  
FORT SMITH CLEAR 40 25 55 W7 30.26R  
HARRISON CLOUDY 34 18 52 W3 30.24S  
BENTONVILLE CLOUDY 35 22 58 N3 30.26R  
ROGERS CLOUDY 35 20 54 NW3 30.25R  
SILOAM SPGS CLOUDY 34 21 59 N6 30.25R WCI 29  
HIGHFILL CLOUDY 34 21 59 NW5 30.25R WCI 30  
SPRINGDALE CLEAR 34 23 64 CALM 30.25R  

 
 
ARZ004-005-016-230400-  
NORTH CENTRAL ARKANSAS  
 
CITY SKY/WX TMP DP RH WIND PRES REMARKS
 
BATESVILLE CLEAR 32 22 66 CALM 30.27S  
FLIPPIN CLOUDY 30 21 69 CALM 30.27R  
MTN HOME CLOUDY 34 20 56 CALM 30.24R  

 
 
ARZ040-041-230400-  
WEST CENTRAL ARKANSAS  
 
CITY SKY/WX TMP DP RH WIND PRES REMARKS
 
MENA CLEAR 30 27 86 CALM 30.24F  
MOUNT IDA CLEAR 33 25 72 CALM 30.21F  

 
 
ARZ009-017-025-026-028-230400-  
NORTHEAST ARKANSAS  
 
CITY SKY/WX TMP DP RH WIND PRES REMARKS
 
JONESBORO CLOUDY 32 26 78 NE3 30.27F  
NEWPORT CLEAR 32 25 75 E5 30.27F WCI 27  
WALNUT RIDGE N/A 34 24 67 SE3 30.27F  
BLYTHEVILLE CLOUDY 31 25 78 NE6 30.30R WCI 25  

 
 
ARZ022-023-033-042-044-230400-  
CENTRAL ARKANSAS  
 
CITY SKY/WX TMP DP RH WIND PRES REMARKS
 
LITTLE ROCK CLEAR 35 26 69 CALM 30.27S  
N LITTLE ROCK N/A 36 22 56 CALM 30.29S  
JACKSONVILLE CLEAR 28 22 78 CALM 30.25S HAZE  
SEARCY CLEAR 31 25 78 CALM 30.27F  
HOT SPRINGS CLEAR 36 26 67 CALM 30.26R  
RUSSELLVILLE CLEAR 31 26 82 CALM 30.26R  
CLINTON FAIR 28 25 86 CALM 30.29R  

 
 
ARZ036-230400-  
EAST ARKANSAS  
 
CITY SKY/WX TMP DP RH WIND PRES REMARKS
 
WEST MEMPHIS CLEAR 34 26 72 NE3 30.27S  

 
 
ARZ050-053-066-070-073-230400-  
SOUTHWEST ARKANSAS  
 
CITY SKY/WX TMP DP RH WIND PRES REMARKS
 
ARKADELPHIA FAIR 28 25 88 CALM 30.28R  
CAMDEN CLEAR 32 27 80 CALM 30.26S  
TEXARKANA PTCLDY 40 29 64 SE3 30.25R  
EL DORADO CLEAR 35 32 88 CALM 30.26S  
DE QUEEN CLEAR 34 31 88 SE3 30.23S  

 
 
ARZ056-057-069-230400-  
SOUTHEAST ARKANSAS  
 
CITY SKY/WX TMP DP RH WIND PRES REMARKS
 
PINE BLUFF CLEAR 35 24 64 CALM 30.28R  
STUTTGART CLEAR 37 25 61 E3 30.27S  
MONTICELLO CLEAR 37 26 64 CALM 30.26F  
 

 
 
 
 
CLICK HERE TO GO TO PREVIOUS BULLETINS.

The Nexlab AR Page Main Text Page